Weather in Hoyerswerda

Germany     51°26′20″N   14°15′10″E
temp.,
°C
wind,
m/s
gust,
m/s
humid.,
%
clouds,
%
prec.,
mm/h
press.,
hPa
HPBL,
m
16 june, wed
wed1623:00+17ne26957 0.8 1019125
02:00+15ene259795 0.8 1019133
05:00+13ene259697 0.0 1019117
08:00+17e3478100 0.0 1019344
11:00+23e3354100 0.0 1018938
14:00+27ese224149 0.0 10171902
17:00+28sse223960 0.0 10162137
20:00+25se25585 0.0 1016228
17 june, thu
thu1723:00+19ese310825 0.0 1016239
02:00+18ese25875 0.0 101693
05:00+17se25844 0.0 101696
08:00+23se365737 0.0 1016345
11:00+29sse56385 0.0 10161458
14:00+31sse45310 0.0 10152195
17:00+31sse45320 0.0 10152146
20:00+27se25510 0.0 1015142
18 june, fri
fri1823:00+21se37750 0.0 1016126
02:00+20se36750 0.0 1016100
05:00+18se39800 0.0 1015171
08:00+24se511530 0.0 1015499
11:00+30sse57360 0.0 10151394
14:00+32sse57300 0.0 10142089
17:00+31sse56300 0.0 10142371
20:00+27sse38470 0.0 1013377
19 june, sat
sat1923:00+21se39685 0.0 1015168
02:00+20se37765 0.0 1014157
05:00+18s22815 0.0 101534
08:00+24sw3560100 0.0 1015358
11:00+30wsw344698 0.0 10151013
14:00+32wsw333995 0.0 10142227
17:00+32w43388 0.0 10142065
20:00+28nnw2655100 0.0 1015308
20 june, sun
sun2023:00+21nnw238420 0.9 101755
02:00+19nw25895 0.9 1017107
05:00+18ne119417 0.0 101611
08:00+23ene3479100 0.0 1015417
11:00+29ese3453100 0.0 1014974
14:00+32se343894 0.0 10121962
17:00+33ese453649 0.0 10102069
20:00+29ese49545 0.0 1009629